Hourly Weather Rahimsufi

Today, 11 April, Sunday

Time Temperature Precipitation Wind Pressure Humidity
00:00 +18°C° 0 mm 2 mps 727 mmHg 45%
01:00 +17°C° 0 mm 2 mps 727 mmHg 47%
02:00 +17°C° 0 mm 2 mps 727 mmHg 48%
03:00 +16°C° 0 mm 2 mps 727 mmHg 50%
04:00 +16°C° 0 mm 2 mps 727 mmHg 51%
05:00 +17°C° 0 mm 2 mps 727 mmHg 49%
06:00 +18°C° 0 mm 2 mps 727 mmHg 48%
07:00 +19°C° 0 mm 2 mps 728 mmHg 47%
08:00 +21°C° 0 mm 1 mps 728 mmHg 42%
09:00 +23°C° 0 mm 1 mps 728 mmHg 37%
10:00 +25°C° 0 mm 1 mps 728 mmHg 32%
11:00 +26°C° 0 mm 1 mps 728 mmHg 29%
12:00 +27°C° 0 mm 2 mps 728 mmHg 26%
13:00 +28°C° 0 mm 2 mps 728 mmHg 24%
14:00 +28°C° 0 mm 2 mps 727 mmHg 24%
15:00 +28°C° 0 mm 3 mps 727 mmHg 24%
16:00 +27°C° 0 mm 3 mps 727 mmHg 24%
17:00 +25°C° 0 mm 3 mps 727 mmHg 27%
18:00 +22°C° 0 mm 4 mps 727 mmHg 31%
19:00 +20°C° 0 mm 4 mps 727 mmHg 35%
20:00 +19°C° 0 mm 4 mps 727 mmHg 39%
21:00 +18°C° 0 mm 4 mps 727 mmHg 43%
22:00 +16°C° 0 mm 3 mps 727 mmHg 46%
23:00 +16°C° 0 mm 3 mps 726 mmHg 47%

Tomorrow, 12 April, Monday

Time Temperature Precipitation Wind Pressure Humidity
00:00 +15°C° 0 mm 2 mps 726 mmHg 48%
01:00 +15°C° 0 mm 2 mps 726 mmHg 49%
02:00 +14°C° 0 mm 2 mps 726 mmHg 51%
03:00 +12°C° 0 mm 3 mps 727 mmHg 52%
04:00 +12°C° 0 mm 3 mps 727 mmHg 53%
05:00 +13°C° 0 mm 3 mps 727 mmHg 52%
06:00 +14°C° 0 mm 2 mps 727 mmHg 50%
07:00 +15°C° 0 mm 2 mps 727 mmHg 49%
08:00 +17°C° 0 mm 2 mps 728 mmHg 44%
09:00 +19°C° 0 mm 2 mps 728 mmHg 39%
10:00 +21°C° 0 mm 2 mps 728 mmHg 33%
11:00 +23°C° 0 mm 2 mps 728 mmHg 30%
12:00 +24°C° 0 mm 3 mps 728 mmHg 26%
13:00 +25°C° 0 mm 3 mps 728 mmHg 22%
14:00 +25°C° 0 mm 3 mps 727 mmHg 22%
15:00 +25°C° 0 mm 4 mps 727 mmHg 22%
16:00 +23°C° 0 mm 4 mps 727 mmHg 22%
17:00 +21°C° 0 mm 4 mps 727 mmHg 28%
18:00 +19°C° 0 mm 4 mps 727 mmHg 34%
19:00 +17°C° 0 mm 4 mps 727 mmHg 40%
20:00 +17°C° 0 mm 3 mps 727 mmHg 42%
21:00 +16°C° 0 mm 3 mps 727 mmHg 44%
22:00 +15°C° 0 mm 2 mps 728 mmHg 46%
23:00 +15°C° 0 mm 2 mps 727 mmHg 46%

Day after tomorrow, 13 April, Tuesday

Time Temperature Precipitation Wind Pressure Humidity
00:00 +15°C° 0 mm 2 mps 727 mmHg 47%
01:00 +15°C° 0 mm 1 mps 727 mmHg 47%
02:00 +15°C° 0 mm 2 mps 727 mmHg 47%
03:00 +15°C° 0 mm 2 mps 727 mmHg 47%
04:00 +14°C° 0 mm 3 mps 727 mmHg 47%
05:00 +14°C° 0 mm 3 mps 728 mmHg 47%
06:00 +16°C° 0 mm 2 mps 728 mmHg 47%
07:00 +16°C° 0 mm 2 mps 728 mmHg 47%
08:00 +18°C° 0 mm 2 mps 729 mmHg 43%
09:00 +19°C° 0 mm 2 mps 729 mmHg 39%
10:00 +22°C° 0 mm 1 mps 729 mmHg 36%
11:00 +23°C° 0 mm 2 mps 729 mmHg 32%
12:00 +24°C° 0 mm 2 mps 729 mmHg 28%
13:00 +24°C° 0 mm 2 mps 729 mmHg 25%
14:00 +24°C° 0 mm 2 mps 728 mmHg 24%
15:00 +25°C° 0 mm 2 mps 728 mmHg 23%
16:00 +25°C° 0 mm 1 mps 728 mmHg 23%
17:00 +23°C° 0 mm 2 mps 728 mmHg 27%
18:00 +21°C° 0 mm 2 mps 728 mmHg 31%
19:00 +19°C° 0 mm 2 mps 728 mmHg 35%
20:00 +18°C° 0 mm 2 mps 728 mmHg 39%
21:00 +18°C° 0 mm 2 mps 727 mmHg 43%
22:00 +18°C° 0 mm 1 mps 727 mmHg 47%
23:00 +16°C° 0 mm 1 mps 727 mmHg 49%

14 April, Wednesday

Time Temperature Precipitation Wind Pressure Humidity
00:00 +16°C° 0 mm 1 mps 727 mmHg 51%
01:00 +16°C° 0 mm 1 mps 727 mmHg 52%
02:00 +15°C° 0 mm 1 mps 727 mmHg 54%
03:00 +15°C° 0 mm 2 mps 727 mmHg 56%
04:00 +15°C° 0 mm 2 mps 727 mmHg 58%
05:00 +16°C° 0 mm 2 mps 727 mmHg 58%
06:00 +17°C° 0 mm 2 mps 727 mmHg 57%
07:00 +18°C° 0 mm 2 mps 727 mmHg 56%
08:00 +21°C° 0 mm 1 mps 727 mmHg 49%
09:00 +22°C° 0 mm 1 mps 727 mmHg 43%
10:00 +22°C° 0 mm 0 mps 727 mmHg 36%
11:00 +25°C° 0 mm 1 mps 726 mmHg 34%
12:00 +26°C° 0 mm 2 mps 726 mmHg 31%
13:00 +27°C° 0 mm 3 mps 725 mmHg 28%
14:00 +26°C° 0 mm 3 mps 725 mmHg 27%
15:00 +26°C° 0 mm 3 mps 725 mmHg 27%
16:00 +26°C° 0 mm 3 mps 724 mmHg 26%
17:00 +25°C° 0 mm 4 mps 724 mmHg 27%
18:00 +22°C° 0 mm 4 mps 724 mmHg 28%
19:00 +20°C° 0 mm 4 mps 724 mmHg 29%
20:00 +20°C° 0 mm 3 mps 724 mmHg 29%
21:00 +19°C° 0 mm 3 mps 724 mmHg 29%
22:00 +18°C° 0 mm 2 mps 724 mmHg 29%
23:00 +18°C° 0 mm 2 mps 724 mmHg 31%

15 April, Thursday

Time Temperature Precipitation Wind Pressure Humidity
00:00 +17°C° 0 mm 2 mps 724 mmHg 33%
01:00 +17°C° 0 mm 2 mps 724 mmHg 34%
02:00 +16°C° 0 mm 2 mps 724 mmHg 36%
03:00 +16°C° 0 mm 2 mps 724 mmHg 37%
04:00 +15°C° 0 mm 2 mps 724 mmHg 38%
05:00 +16°C° 0 mm 2 mps 724 mmHg 38%
06:00 +17°C° 0 mm 2 mps 725 mmHg 37%
07:00 +19°C° 0 mm 1 mps 725 mmHg 37%
08:00 +21°C° 0 mm 1 mps 725 mmHg 31%
09:00 +22°C° 0 mm 1 mps 726 mmHg 26%
10:00 +24°C° 0 mm 1 mps 726 mmHg 21%
11:00 +25°C° 0 mm 1 mps 726 mmHg 20%
12:00 +25°C° 0 mm 2 mps 726 mmHg 19%
13:00 +26°C° 0 mm 3 mps 726 mmHg 18%
14:00 +26°C° 0 mm 3 mps 725 mmHg 19%
15:00 +26°C° 0 mm 3 mps 725 mmHg 20%
16:00 +25°C° 0 mm 2 mps 725 mmHg 21%
17:00 +24°C° 0 mm 3 mps 725 mmHg 24%
18:00 +21°C° 0 mm 3 mps 724 mmHg 27%
19:00 +20°C° 0 mm 3 mps 724 mmHg 30%
20:00 +19°C° 0 mm 3 mps 724 mmHg 31%
21:00 +19°C° 0 mm 2 mps 724 mmHg 32%
22:00 +18°C° 0 mm 2 mps 724 mmHg 33%
23:00 +18°C° 0 mm 2 mps 724 mmHg 34%

16 April, Friday

Time Temperature Precipitation Wind Pressure Humidity
00:00 +17°C° 0 mm 2 mps 724 mmHg 35%
01:00 +17°C° 0 mm 2 mps 723 mmHg 36%
02:00 +17°C° 0 mm 2 mps 723 mmHg 37%
03:00 +18°C° 0 mm 1 mps 723 mmHg 38%
04:00 +18°C° 0 mm 1 mps 723 mmHg 40%
05:00 +19°C° 0 mm 1 mps 724 mmHg 39%
06:00 +19°C° 0 mm 1 mps 724 mmHg 39%
07:00 +20°C° 0 mm 1 mps 724 mmHg 39%
08:00 +20°C° 0 mm 2 mps 725 mmHg 37%
09:00 +20°C° 0 mm 2 mps 725 mmHg 36%
10:00 +21°C° 0 mm 2 mps 725 mmHg 34%
11:00 +21°C° 0 mm 3 mps 725 mmHg 36%
12:00 +22°C° 0 mm 4 mps 725 mmHg 37%
13:00 +22°C° 0 mm 6 mps 725 mmHg 39%
14:00 +21°C° 0.4 mm 5 mps 726 mmHg 46%
15:00 +20°C° 0.4 mm 4 mps 726 mmHg 52%
16:00 +18°C° 0.4 mm 3 mps 726 mmHg 58%
17:00 +18°C° 0.1 mm 3 mps 726 mmHg 62%
18:00 +17°C° 0.1 mm 3 mps 726 mmHg 66%
19:00 +16°C° 0.1 mm 2 mps 726 mmHg 69%
20:00 +16°C° 0 mm 2 mps 726 mmHg 70%
21:00 +16°C° 0 mm 2 mps 726 mmHg 70%
22:00 +15°C° 0 mm 2 mps 726 mmHg 70%
23:00 +15°C° 0 mm 2 mps 726 mmHg 71%
Show more